Stations météo

Publicité
Lyon/Bron, France (7480): Température de l'air & dewpoint: 14.08.2019 14:00:00 - 20.08.2019 14:00:00 (CEST)Lyon/Bron, France (7480): Température de l'air 5cm: 14.08.2019 14:00:00 - 20.08.2019 14:00:00 (CEST)Lyon/Bron, France (7480): Température de l'air -20cm: 14.08.2019 14:00:00 - 20.08.2019 14:00:00 (CEST)Lyon/Bron, France (7480): Vitesse du vent & gusts: 14.08.2019 14:00:00 - 20.08.2019 14:00:00 (CEST)Lyon/Bron, France (7480): Direction du vent: 14.08.2019 14:00:00 - 20.08.2019 14:00:00 (CEST)Lyon/Bron, France (7480): reduced air pressure: 14.08.2019 14:00:00 - 20.08.2019 14:00:00 (CEST)Lyon/Bron, France (7480): visibility: 14.08.2019 14:00:00 - 20.08.2019 14:00:00 (CEST)Lyon/Bron, France (7480): Ensoleillement: 14.08.2019 14:00:00 - 20.08.2019 14:00:00 (CEST)Lyon/Bron, France (7480): Quantités de précipitations: 14.08.2019 14:00:00 - 20.08.2019 14:00:00 (CEST)
Date & Time tt [°C] td [°C] tt 5cm [°C] tt -20cm [°C] ff [km/h] ff [knt] fx [km/h] fx [knt] dd ppp [hPa] vv [km] sd [min] rr [mm]
20.08.2019 14:00:00 16,5 15,0 16,2 21,9 11 6 18 10 NW 1023,5 2,9 0 0,6
20.08.2019 13:00:00 16,4 15,3 16,2 22,0 11 6 16 9 W 1023,6 7 0 1,4
20.08.2019 12:00:00 16,5 15,4 16,0 22,1 6 4 19 11 W 1023,3 4,4 0 1,0
20.08.2019 11:00:00 16,2 15,2 15,8 22,1 7 4 16 9 NW 1022,5 6 0 1,3
20.08.2019 10:00:00 16,1 15,3 15,7 22,2 9 5 12 7 NNW 1021,9 7 0 1,6
20.08.2019 09:00:00 16,0 15,0 15,5 22,3 0 0 8 4 N 1022,1 7 0 1,2
20.08.2019 08:00:00 15,9 14,9 15,3 22,4 4 2 6 4 WNW 1021,5 9 0 1,0
20.08.2019 07:00:00 16,0 14,9 15,2 22,5 4 2 12 7 S 1021,4 11 0 1,0
20.08.2019 06:00:00 16,2 14,4 15,3 22,6 12 6 17 9 NNW 1020,0 16 0 0,8
20.08.2019 05:00:00 16,8 15,8 16,2 22,7 5 3 9 5 WSW 1020,4 19 0 0,2
20.08.2019 04:00:00 17,0 16,4 15,6 22,8 8 5 11 6 WSW 1020,7 19 0 0,0
20.08.2019 03:00:00 16,4 15,1 15,4 22,9 0 0 8 4 N 1020,5 19 0 0,0
20.08.2019 02:00:00 17,2 16,1 16,3 23,0 2 1 4 2 SSE 1020,8 10 0 0,2
20.08.2019 01:00:00 17,2 15,9 15,6 23,1 3 2 8 4 SE 1021,2 31 0 0,0
20.08.2019 00:00:00 17,3 15,3 15,7 23,2 5 3 17 9 E 1021,4 32 0 2,2
19.08.2019 23:00:00 18,5 14,2 17,7 23,3 7 4 13 7 W 1021,1 53 0 0,0
19.08.2019 22:00:00 18,3 14,4 17,5 23,4 6 4 9 5 WSW 1020,8 52 0 0,0
19.08.2019 21:00:00 18,4 13,7 17,6 23,4 4 2 5 3 WSW 1020,5 57 0 0,0
19.08.2019 20:00:00 18,5 13,6 18,0 23,5 3 2 7 4 W 1020,4 59 0 0,0
19.08.2019 19:00:00 18,7 13,1 18,6 23,5 3 2 10 5 N 1020,1 60 0 0,0
19.08.2019 18:00:00 18,4 13,0 18,7 23,6 6 4 11 6 NW 1020,1 60 0 0,0
19.08.2019 17:00:00 18,6 13,7 18,3 23,5 8 4 23 12 N 1020,3 59 0 0,0
19.08.2019 16:00:00 18,5 14,2 19,1 23,6 16 8 25 13 NNW 1020,2 54 0 0,0
19.08.2019 15:00:00 18,0 14,1 17,4 23,7 14 8 26 14 N 1020,3 42 0 0,0
19.08.2019 14:00:00 17,3 15,3 17,6 23,7 14 7 23 12 N 1020,1 15 0 0,0
19.08.2019 13:00:00 17,3 14,8 17,0 23,8 16 9 28 15 NNW 1019,8 49 0 0,0
19.08.2019 12:00:00 18,6 16,4 17,8 23,9 13 7 22 12 N 1019,2 20 0 0,0
19.08.2019 11:00:00 18,3 16,6 17,7 24,0 13 7 23 12 N 1018,7 50 0 0,2
19.08.2019 10:00:00 18,7 16,8 18,4 24,0 13 7 21 11 N 1018,1 55 0 0,0
19.08.2019 09:00:00 19,0 17,0 17,9 24,1 14 7 22 12 N 1017,6 59 0 0,0
19.08.2019 08:00:00 18,9 17,9 18,3 24,3 6 3 14 8 NNE 1017,5 51 0 0,0
19.08.2019 07:00:00 19,0 18,2 18,3 24,4 10 5 14 8 NNE 1016,8 11 0 0,8
19.08.2019 06:00:00 19,2 18,2 18,4 24,5 5 3 14 7 NNE 1016,9 4,3 0 2,0
19.08.2019 05:00:00 19,1 17,9 18,4 24,7 8 4 18 10 N 1016,5 56 0 0,6
19.08.2019 04:00:00 20,0 19,0 19,1 24,8 9 5 16 9 E 1016,1 35 0 0,0
19.08.2019 03:00:00 20,2 19,0 19,4 24,9 5 3 32 17 ENE 1016,1 20 0 2,6
19.08.2019 02:00:00 20,8 19,8 19,0 25,0 4 2 8 4 W 1016,2 19 0 0,0
19.08.2019 01:00:00 20,9 19,6 19,6 25,1 4 2 9 5 NNE 1014,8 23 0 0,4
19.08.2019 00:00:00 21,2 19,5 19,9 25,1 3 2 19 11 NE 1015,3 25 0 0,6
18.08.2019 23:00:00 21,7 19,3 20,1 25,2 12 6 21 11 NNW 1015,1 24 0 1,6
18.08.2019 22:00:00 23,6 18,0 21,4 25,2 5 3 31 17 NNW 1013,4 19 0 0,0
18.08.2019 21:00:00 25,0 17,7 21,2 25,2 18 10 48 26 NW 1011,0 17 0 0,0
18.08.2019 20:00:00 29,0 15,9 28,0 25,1 24 13 53 29 S 1009,2 60 14 0,0
18.08.2019 19:00:00 30,3 16,3 29,5 24,9 28 15 52 28 S 1008,9 55 30 0,0
18.08.2019 18:00:00 30,8 17,5 31,4 24,6 29 15 54 29 S 1009,1 18 54 0,0
18.08.2019 17:00:00 30,9 17,9 33,3 24,4 37 20 56 31 S 1009,5 17 60 0,0
18.08.2019 16:00:00 30,8 17,8 32,3 24,1 35 19 56 30 S 1009,4 17 60 0,0
18.08.2019 15:00:00 30,3 17,7 33,1 23,8 38 21 60 32 S 1009,7 20 60 0,0
18.08.2019 14:00:00 29,9 17,7 30,2 23,6 41 22 71 39 S 1010,1 17 54 0,0
18.08.2019 13:00:00 28,9 17,1 29,3 23,5 44 24 71 38 S 1010,2 19 49 0,0
18.08.2019 12:00:00 28,3 16,2 29,0 23,4 45 24 80 43 S 1009,6 21 60 0,0
18.08.2019 11:00:00 27,0 15,1 27,1 23,4 44 24 77 41 S 1009,6 30 60 0,0
18.08.2019 10:00:00 25,8 15,5 25,3 23,5 36 19 63 34 S 1009,8 20 60 0,0
18.08.2019 09:00:00 24,4 15,3 22,6 23,6 22 12 42 23 S 1010,3 47 60 0,0
18.08.2019 08:00:00 22,2 16,5 19,7 23,8 15 8 30 16 SSE 1010,7 18 34 0,0
18.08.2019 07:00:00 21,0 16,6 18,7 23,9 6 3 17 9 S 1011,0 29 0 0,0
18.08.2019 06:00:00 20,7 16,9 16,8 24,0 10 5 23 13 S 1011,3 27 0 0,0
18.08.2019 05:00:00 21,6 17,4 19,6 24,1 15 8 31 17 SSW 1011,6 27 0 0,0
18.08.2019 04:00:00 22,6 16,4 21,0 24,1 21 11 36 20 SSW 1011,5 38 0 0,0
18.08.2019 03:00:00 23,2 16,0 21,9 24,3 24 13 37 20 SSW 1011,9 43 0 0,0
18.08.2019 02:00:00 23,9 14,9 22,4 24,4 24 13 39 21 S 1012,3 53 0 0,0
18.08.2019 01:00:00 25,0 13,2 23,5 24,4 25 13 41 22 S 1012,2 59 0 0,0
18.08.2019 00:00:00 26,4 13,5 24,9 24,5 24 13 40 22 S 1011,9 60 0 0,0
17.08.2019 23:00:00 27,1 13,4 25,7 24,6 26 14 39 21 S 1011,7 60 0 0,0
17.08.2019 22:00:00 27,9 14,9 26,2 24,6 22 12 35 19 S 1011,3 60 0 0,0
17.08.2019 21:00:00 29,3 13,5 27,6 24,5 21 11 36 19 S 1010,6 60 0 0,0
17.08.2019 20:00:00 30,7 13,0 28,8 24,4 18 10 33 18 S 1010,5 60 33 0,0
17.08.2019 19:00:00 32,3 11,5 31,1 24,1 20 11 34 19 S 1010,4 47 54 0,0
17.08.2019 18:00:00 32,8 9,6 34,6 23,8 25 13 40 22 S 1010,8 39 60 0,0
17.08.2019 17:00:00 32,9 7,7 34,4 23,5 24 13 36 19 S 1011,3 38 56 0,0
17.08.2019 16:00:00 32,3 9,8 33,5 23,1 21 11 32 17 S 1011,8 40 60 0,0
17.08.2019 15:00:00 31,3 10,1 33,5 22,8 23 12 36 19 S 1012,4 40 60 0,0
17.08.2019 14:00:00 29,6 12,5 31,1 22,6 16 8 31 17 SSW 1013,2 45 55 0,0
17.08.2019 13:00:00 28,0 13,1 28,6 22,4 22 12 33 18 S 1014,0 50 50 0,0
17.08.2019 12:00:00 26,2 13,3 26,6 22,3 14 8 27 15 S 1014,6 52 35 0,0
17.08.2019 11:00:00 24,2 12,8 25,9 22,3 11 6 20 11 S 1015,0 60 47 0,0
17.08.2019 10:00:00 22,3 13,6 21,5 22,4 2 1 6 4 ENE 1015,3 45 60 0,0
17.08.2019 09:00:00 18,3 12,9 16,5 22,5 0 0 6 3 N 1015,7 46 3 0,0
17.08.2019 08:00:00 16,5 12,8 13,6 22,6 3 2 5 3 SE 1015,3 44 0 0,0
17.08.2019 07:00:00 15,1 12,6 11,8 22,8 3 2 4 2 ESE 1015,6 42 0 0,0
17.08.2019 06:00:00 15,1 12,2 11,5 23,0 0 0 5 3 N 1015,5 47 0 0,0
17.08.2019 05:00:00 15,1 12,0 11,8 23,2 0 0 9 5 N 1015,4 47 0 0,0
17.08.2019 04:00:00 16,5 12,5 12,5 23,3 5 3 6 3 SE 1015,2 50 0 0,0
17.08.2019 03:00:00 15,9 12,3 12,4 23,5 0 0 6 4 N 1015,5 51 0 0,0
17.08.2019 02:00:00 16,9 12,6 13,2 23,6 4 2 5 3 SSE 1015,2 47 0 0,0
17.08.2019 01:00:00 17,5 13,0 13,7 23,8 0 0 4 2 N 1015,6 52 0 0,0
17.08.2019 00:00:00 18,2 12,4 14,0 24,0 3 2 5 3 SSW 1015,6 51 0 0,0
16.08.2019 23:00:00 20,2 12,4 16,2 24,0 6 3 9 5 ESE 1015,6 52 0 0,0
16.08.2019 22:00:00 20,9 12,6 16,7 24,1 2 1 9 5 S 1015,5 58 0 0,0
16.08.2019 21:00:00 22,6 11,6 17,7 24,0 5 3 11 6 ENE 1015,3 60 0 0,0
16.08.2019 20:00:00 24,9 10,7 22,9 23,9 6 3 13 7 ESE 1014,8 60 38 0,0
16.08.2019 19:00:00 25,8 10,0 27,3 23,7 7 4 13 7 ENE 1014,9 57 54 0,0
16.08.2019 18:00:00 26,0 8,9 26,7 23,4 4 2 16 9 E 1015,2 59 48 0,0
16.08.2019 17:00:00 25,6 9,8 27,5 23,0 5 3 16 9 NNW 1016,2 41 47 0,0
16.08.2019 16:00:00 25,3 10,0 27,8 22,6 5 3 21 12 NNE 1016,7 55 55 0,0
16.08.2019 15:00:00 24,6 11,9 27,7 22,3 9 5 19 11 NNE 1017,2 54 47 0,0
16.08.2019 14:00:00 23,9 11,2 27,6 22,1 8 4 21 11 N 1017,7 52 46 0,0
16.08.2019 13:00:00 23,4 11,8 27,5 21,9 6 3 18 10 NNE 1018,0 49 51 0,0
16.08.2019 12:00:00 22,9 12,8 26,5 21,8 8 5 19 10 NE 1018,5 48 60 0,0
16.08.2019 11:00:00 21,5 12,9 21,9 21,8 9 5 21 11 N 1019,1 57 57 0,0
16.08.2019 10:00:00 19,8 11,8 20,5 21,9 14 8 24 13 NNW 1019,7 58 47 0,0
16.08.2019 09:00:00 18,7 11,7 16,0 22,0 9 5 13 7 NNW 1019,9 50 60 0,0
16.08.2019 08:00:00 14,9 12,9 10,7 22,2 0 0 3 2 N 1020,6 42 39 0,0
16.08.2019 07:00:00 12,8 11,2 10,2 22,4 0 0 3 1 N 1020,2 42 0 0,0
16.08.2019 06:00:00 13,2 11,4 10,3 22,5 0 0 4 2 N 1020,3 48 0 0,0
16.08.2019 05:00:00 13,6 11,3 10,6 22,7 2 1 3 2 SSW 1020,6 52 0 0,0
16.08.2019 04:00:00 14,5 11,5 11,1 22,9 0 0 8 4 N 1020,9 55 0 0,0
16.08.2019 03:00:00 15,7 11,3 11,7 23,1 4 2 9 5 NNW 1021,0 60 0 0,0
16.08.2019 02:00:00 15,2 11,6 11,8 23,3 4 2 6 3 WNW 1021,1 47 0 0,0
16.08.2019 01:00:00 16,0 11,4 12,2 23,4 0 0 7 4 N 1021,2 56 0 0,0
16.08.2019 00:00:00 17,9 11,0 13,4 23,5 5 3 9 5 N 1021,1 60 0 0,0
15.08.2019 23:00:00 19,2 10,7 15,4 23,6 7 4 12 7 N 1020,7 60 0 0,0
15.08.2019 22:00:00 20,0 10,4 15,7 23,7 6 4 14 8 NNW 1020,2 60 0 0,0
15.08.2019 21:00:00 21,6 10,4 19,3 23,7 10 5 22 12 N 1019,6 60 0 0,0
15.08.2019 20:00:00 23,1 9,8 21,9 23,6 16 9 29 16 N 1018,9 56 39 0,0
15.08.2019 19:00:00 24,6 9,7 24,2 23,4 19 11 34 18 NNW 1018,2 53 53 0,0
15.08.2019 18:00:00 24,7 10,2 24,6 23,3 27 14 37 20 NNW 1017,9 60 16 0,0
15.08.2019 17:00:00 25,8 11,2 25,5 23,0 22 12 35 19 NW 1017,4 60 38 0,0
15.08.2019 16:00:00 24,4 13,0 24,4 22,8 21 11 32 17 N 1017,6 46 28 0,0
15.08.2019 15:00:00 23,8 13,9 23,4 22,7 12 7 23 12 N 1017,9 58 6 0,0
15.08.2019 14:00:00 24,0 13,8 25,7 22,5 11 6 21 12 N 1017,9 47 30 0,0
15.08.2019 13:00:00 23,3 14,3 21,8 22,5 14 7 21 11 NNW 1018,0 47 1 0,0
15.08.2019 12:00:00 21,7 13,6 20,4 22,5 8 5 16 9 SW 1018,0 57 0 0,0
15.08.2019 11:00:00 21,2 13,4 19,7 22,5 14 7 20 11 SW 1017,7 59 20 0,0
15.08.2019 10:00:00 21,2 12,6 18,0 22,6 3 2 12 6 WSW 1017,1 54 42 0,0
15.08.2019 09:00:00 18,5 11,8 16,9 22,7 9 5 14 7 SSE 1017,1 59 8 0,0
15.08.2019 08:00:00 16,8 12,1 14,5 22,8 5 3 6 3 SSE 1017,2 58 0 0,0
15.08.2019 07:00:00 16,1 11,7 13,8 23,0 4 2 5 3 SSE 1017,1 59 0 0,0
15.08.2019 06:00:00 16,5 12,1 14,7 23,1 3 2 5 3 SSE 1016,9 59 0 0,0
15.08.2019 05:00:00 16,7 11,6 14,6 23,3 3 1 9 5 ESE 1016,9 60 0 0,0
15.08.2019 04:00:00 16,4 11,3 13,3 23,4 4 2 9 5 SSE 1017,2 60 0 0,0
15.08.2019 03:00:00 16,6 11,5 14,4 23,6 3 1 12 6 SW 1017,4 60 0 0,0
15.08.2019 02:00:00 17,1 11,8 13,8 23,8 6 3 9 5 S 1017,4 60 0 0,0
15.08.2019 01:00:00 17,4 11,4 13,6 24,0 7 4 9 5 S 1017,6 56 0 0,0
15.08.2019 00:00:00 17,4 11,7 13,7 24,1 5 3 7 4 S 1017,5 47 0 0,0
14.08.2019 23:00:00 18,0 11,8 13,9 24,2 3 2 4 2 S 1017,4 43 0 0,0
14.08.2019 22:00:00 19,6 11,1 15,3 24,3 0 0 8 5 N 1017,2 60 0 0,0
14.08.2019 21:00:00 22,1 9,6 17,9 24,2 6 3 14 7 NE 1016,4 60 6 0,0
14.08.2019 20:00:00 24,0 8,8 21,3 24,1 9 5 16 9 NNE 1016,1 60 60 0,0
14.08.2019 19:00:00 24,8 8,3 27,3 23,9 7 4 21 11 N 1016,3 56 60 0,0
14.08.2019 18:00:00 25,5 8,9 28,3 23,6 13 7 24 13 N 1016,4 60 60 0,0
14.08.2019 17:00:00 24,7 8,2 28,4 23,2 11 6 25 13 NNW 1016,8 46 60 0,0
14.08.2019 16:00:00 24,8 7,4 28,1 22,8 15 8 26 14 N 1017,1 60 60 0,0
14.08.2019 15:00:00 24,4 6,2 28,4 22,5 16 8 28 15 N 1017,6 60 60 0,0
14.08.2019 14:00:00 23,6 6,8 27,3 22,2 14 8 33 18 N 1018,2 60 60 0,0

tt = Température de l'air
td = dewpoint
tt 5cm = Température de l'air 5cm
tt -20cm = Température de l'air -20cm
ff = Vitesse du vent
fx = gusts
dd = Direction du vent
ppp = reduced air pressure
vv = visibility
sd = Ensoleillement
rr = Quantités de précipitations

stations d'obs. à proximité